Probability
0 0 0 0 0 0 0 0 0 0 0 0 0 0 0 0 0 0 0 0 0 0 0 0 0 0 0 0 0 0 0 0 0 0 0 0 0 0
0 0 0 0 0 0 0 0 0 0 0 0 0 0 0 0 0 0 0 0 0 0 0 0 0 0 0 0 0 0 0 0 0 0 0 0 0 0
0 0 0 0 0 0 0 0 0 0 0 0 0 0 0 0 0 0 0 0 0 0 0 0 0 0 0 0 0 0 0 0 0 0 0 0 0 0
0 0 0 0 0 0 0 0 0 0 0 0 0 0 0 0 0 0 0 0 0 0 0 0 0 0 0 0 0 0 0 0 0 0 0 0 0 0
0 0 0 0 0 0 0 0 0 0 0 0 0 0 0 0 0 0 0 0 0 0 0 0 0 0 0 0 0 0 0 0 0 0 0 0 0 0
0 0 0 0 0 0 0 0 0 0 0 0 0 0 0 0 0 0 0 0 0 0 0 0 0 0 0 0 0 0 0 0 0 0 0 0 0 0
0 0 0 0 0 0 0 0 0 0 0 0 0 0 0 0 0 0 0 0 0 0 0 0 0 0 0 0 0 0 0 0 0 0 0 0 0 0
0 0 0 0 0 0 0 0 0 0 0 0 0 0 0 0 0 0 0 0 0 0 0 0 0 0 0 0 0 0 0 0 0 0 0 0 0 0
0 0 0 0 0 0 0 0 0 0 0 0 0 0 0 0 0 0 0 0 0 0 0 0 0 0 0 0 0 0 0 0 0 0 0 0 0 0
0 0 0 0 0 0 0 0 0 0 0 0 0 0 0 0 0 0 0 0 0 0 0 0 0 0 0 0 0 0 0 0 0 0 0 0 0 0
0 0 0 0 0 0 0 0 0 0 0 0 0 0 0 0 0 0 0 0 0 0 0 0 0 0 0 0 0 0 0 0 0 0 0 0 0 0
0 0 0 0 0 0 0 0 0 0 0 0 0 0 0 0 0 0 0 0 0 0 0 0 0 0 0 0 0 0 0 0 0 0 0 0 0 0
0 0 0 0 0 0 0 0 0 0 0 0 0 0 0 0 0 0 0 0 0 0 0 0 0 0 0 0 0 0 0 0 0 0 0 0 0 0
0 0 0 0 0 0 0 0 0 0 0 0 0 0 0 0 0 0 0 0 0 0 0 0 0 0 0 0 0 0 0 0 0 0 0 0 0 0
0 0 0 0 0 0 0 0 0 0 0 0 0 0 0 0 0 0 0 0 0 0 0 0 0 0 0 0 0 0 0 0 0 0 0 0 0 0
0 0 0 0 0 0 0 0 0 0 0 0 0 0 0 0 0 0 0 0 0 0 0 0 0 0 0 0 0 0 0 0 0 0 0 0 0 0
0 0 0 0 0 0 0 0 0 0 0 0 0 0 0 0 0 0 0 0 0 0 0 0 0 0 0 0 0 0 0 0 0 0 0 0 0 0
0 0 0 0 0 0 0 0 0 0 0 0 0 0 0 0 0 0 0 0 0 0 0 0 0 0 0 0 0 0 0 0 0 0 0 0 0 0
0 0 0 0 0 0 0 0 0 0 0 0 0 0 0 0 0 0 0 0 0 0 0 0 0 0 0 0 0 0 0 0 0 0 0 0 0 0
0 0 0 0 0 0 0 0 0 0 0 0 0 0 0 0 0 0 0 0 0 0 0 0 0 0 0 0 0 0 0 0 0 0 0 0 0 0
0 0 0 0 0 0 0 0 0 0 0 0 0 0 0 0 0 0 0 0 0 0 0 0 0 0 0 0 0 0 0 0 0 0 0 0 0 0
0 0 0 0 0 0 0 0 0 0 0 0 0 0 0 0 0 0 0 0 0 0 0 0 0 0 0 0 0 0 0 0 0 0 0 0 0 0
0 0 0 0 0 0 0 0 0 0 0 0 0 0 0 0 0 0 0 0 0 0 0 0 0 0 0 0 0 0 0 0 0 0 0 0 0 0
Height
5662 5662 5662 5662 5661 5660 5659 5658 5657 5656 5656 5654 5652 5650 5648 5647 5645 5643 5642 5641 5639 5638 5636 5635 5633 5632 5631 5629 5627 5626 5624 5623 5621 5620 5619 5618 5617 5616
5651 5651 5650 5650 5650 5649 5648 5646 5645 5643 5642 5642 5640 5638 5636 5634 5632 5630 5629 5628 5626 5625 5623 5622 5620 5619 5617 5616 5614 5612 5611 5609 5608 5606 5605 5603 5602 5601
5639 5639 5639 5639 5638 5637 5636 5634 5633 5631 5629 5629 5627 5625 5623 5621 5619 5618 5616 5615 5614 5612 5610 5608 5607 5605 5604 5602 5601 5599 5598 5596 5595 5593 5591 5590 5588 5587
5628 5628 5628 5627 5627 5626 5624 5622 5621 5619 5617 5616 5615 5613 5611 5608 5606 5605 5603 5602 5600 5599 5597 5595 5594 5592 5591 5590 5588 5586 5584 5583 5581 5580 5579 5577 5575 5572
5617 5617 5617 5616 5615 5614 5613 5611 5609 5606 5604 5603 5602 5600 5599 5596 5594 5592 5590 5589 5587 5585 5584 5582 5581 5579 5578 5576 5575 5573 5572 5570 5569 5567 5565 5563 5561 5559
5607 5606 5606 5605 5604 5603 5601 5599 5597 5595 5593 5592 5590 5589 5587 5584 5582 5580 5578 5576 5574 5573 5571 5569 5568 5566 5565 5563 5563 5561 5559 5557 5555 5554 5553 5551 5549 5548
5596 5596 5595 5594 5593 5591 5589 5587 5585 5583 5581 5580 5578 5577 5574 5572 5571 5568 5567 5565 5563 5561 5559 5557 5555 5554 5552 5551 5549 5547 5546 5544 5543 5542 5541 5539 5538 5536
5586 5586 5585 5583 5582 5580 5578 5576 5574 5572 5570 5568 5567 5565 5563 5561 5559 5557 5555 5554 5552 5550 5547 5545 5543 5541 5540 5538 5537 5535 5534 5533 5532 5531 5529 5528 5527 5525
5576 5575 5574 5573 5571 5569 5567 5565 5563 5561 5559 5558 5556 5554 5552 5550 5548 5546 5544 5542 5540 5538 5536 5534 5532 5530 5529 5527 5525 5524 5523 5522 5521 5520 5518 5517 5516 5515
5567 5565 5564 5562 5560 5558 5556 5555 5553 5551 5549 5547 5546 5544 5541 5539 5537 5535 5533 5531 5530 5527 5525 5524 5522 5520 5518 5516 5515 5514 5512 5511 5510 5509 5507 5506 5506 5505
5557 5555 5554 5552 5551 5548 5547 5545 5543 5541 5539 5537 5536 5533 5531 5529 5527 5525 5523 5521 5519 5517 5515 5513 5512 5510 5508 5506 5505 5503 5502 5501 5499 5498 5497 5496 5496 5494
5548 5546 5544 5543 5541 5539 5538 5536 5534 5532 5530 5528 5526 5523 5521 5519 5516 5514 5513 5511 5509 5508 5506 5504 5502 5500 5499 5497 5495 5493 5492 5491 5490 5489 5488 5487 5485 5484
5538 5536 5535 5534 5532 5530 5528 5527 5525 5523 5520 5518 5516 5514 5511 5509 5507 5505 5503 5501 5500 5498 5496 5494 5492 5490 5488 5488 5486 5484 5482 5482 5481 5480 5479 5478 5476 5475
5529 5528 5526 5525 5523 5521 5519 5518 5516 5513 5511 5509 5507 5504 5502 5500 5498 5495 5494 5492 5490 5489 5486 5484 5482 5481 5479 5478 5477 5475 5474 5472 5472 5471 5470 5469 5467 5466
5520 5518 5517 5515 5514 5512 5511 5509 5507 5504 5502 5500 5497 5495 5492 5490 5488 5486 5485 5483 5481 5479 5477 5475 5473 5471 5470 5469 5468 5467 5466 5464 5463 5462 5461 5460 5459 5458
5510 5509 5508 5506 5505 5503 5502 5500 5498 5495 5493 5491 5488 5486 5483 5481 5479 5478 5476 5474 5473 5471 5468 5466 5464 5463 5461 5460 5459 5459 5458 5457 5456 5455 5454 5453 5452 5451
5501 5500 5499 5497 5496 5494 5493 5491 5489 5487 5485 5482 5480 5477 5475 5473 5471 5469 5468 5466 5464 5463 5461 5459 5457 5455 5454 5453 5453 5452 5451 5450 5449 5448 5448 5447 5446 5445
5493 5492 5490 5489 5487 5486 5484 5482 5480 5478 5476 5474 5472 5470 5468 5465 5463 5462 5460 5459 5457 5455 5454 5452 5451 5450 5449 5448 5447 5446 5445 5444 5443 5442 5441 5441 5441 5440
5485 5484 5483 5481 5480 5478 5476 5474 5473 5470 5468 5466 5464 5462 5460 5458 5456 5455 5453 5452 5450 5449 5447 5446 5444 5443 5442 5442 5441 5440 5439 5438 5437 5436 5435 5435 5435 5435
5478 5477 5475 5474 5472 5470 5469 5467 5465 5463 5461 5459 5456 5455 5453 5451 5449 5447 5446 5445 5443 5442 5441 5439 5438 5437 5436 5436 5436 5435 5433 5432 5432 5431 5430 5430 5430 5430
5470 5469 5468 5467 5465 5463 5462 5460 5458 5456 5454 5452 5450 5448 5446 5444 5442 5441 5439 5438 5437 5436 5435 5433 5432 5431 5430 5430 5430 5429 5428 5427 5426 5426 5426 5425 5425 5425
5463 5462 5461 5460 5458 5457 5455 5453 5452 5450 5448 5446 5444 5442 5440 5438 5436 5435 5433 5432 5431 5430 5429 5428 5426 5425 5425 5425 5424 5424 5423 5423 5422 5421 5421 5422 5421 5422
5456 5455 5454 5453 5452 5450 5449 5447 5446 5444 5442 5441 5439 5437 5435 5433 5431 5429 5428 5427 5426 5424 5423 5422 5421 5420 5420 5420 5419 5419 5419 5419 5418 5418 5418 5418 5418 5418
Wind_Speed
43 44 44 44 44 45 45 46 46 46 45 46 47 47 48 48 48 48 49 49 49 49 50 51 51 51 51 51 52 52 52 51 51 52 53 53 53 54
43 44 44 45 45 45 46 46 46 46 46 46 46 47 48 48 48 48 49 49 49 49 50 50 51 51 51 51 51 51 51 50 50 51 53 53 53 53
42 43 44 45 45 45 45 46 46 46 47 47 47 46 47 47 47 47 48 48 48 48 49 50 50 51 52 51 51 50 49 49 49 50 51 51 52 52
42 42 43 44 44 44 44 45 46 47 47 45 45 45 46 46 47 47 47 47 47 48 48 49 49 50 51 50 50 49 48 48 48 49 49 50 50 50
41 42 42 42 43 44 44 45 46 46 45 44 44 44 45 46 46 46 46 46 46 47 47 48 49 49 50 50 49 49 49 48 48 47 48 48 47 46
40 41 41 42 43 43 44 44 44 44 44 44 44 44 44 44 44 44 45 45 45 45 46 47 47 48 48 49 48 48 48 48 46 45 45 44 43 44
40 40 41 41 42 43 43 44 44 43 43 43 43 43 43 43 43 44 44 44 44 44 45 45 46 46 47 47 47 46 45 44 43 42 41 42 42 42
39 40 40 41 42 42 42 43 43 43 42 42 42 42 42 43 43 43 43 42 42 42 43 43 44 44 44 44 44 43 42 43 42 40 39 40 41 40
37 38 39 39 40 41 41 41 41 42 41 40 40 40 41 41 42 42 41 41 41 41 42 41 42 41 40 40 41 41 42 42 42 40 39 39 38 37
37 37 38 38 38 38 37 38 38 38 38 38 38 39 39 40 40 40 39 40 40 40 40 39 39 39 38 39 40 40 40 40 39 39 38 37 36 35
36 37 37 37 36 36 36 36 36 36 36 37 37 37 38 38 38 37 37 37 37 38 37 37 37 38 38 38 38 38 38 37 37 36 36 35 34 34
35 36 36 36 36 36 35 36 35 35 36 36 36 36 37 37 36 36 36 36 36 35 36 36 36 36 36 36 36 36 36 35 34 34 34 33 33 32
34 34 34 34 34 33 33 33 34 34 35 35 35 35 35 35 35 35 34 34 34 34 35 36 36 36 36 35 35 34 34 33 32 32 32 32 31 30
33 32 33 33 33 33 33 32 33 33 34 35 35 35 35 35 35 34 34 34 34 34 35 35 35 35 35 34 33 32 31 31 31 30 30 30 30 28
31 31 32 32 32 32 32 33 33 34 34 35 34 34 34 34 34 33 33 33 34 34 34 34 34 33 33 32 31 29 28 28 29 28 28 27 27 26
31 31 31 31 31 32 32 33 33 33 33 33 33 33 33 32 32 31 31 32 32 32 32 32 31 30 28 27 27 26 26 26 26 25 25 25 24 24
30 30 30 30 30 30 30 31 31 32 32 32 32 31 31 30 30 30 29 29 29 29 28 27 26 25 24 23 23 23 22 22 22 22 22 22 21 20
28 27 27 27 28 28 29 29 30 30 31 31 31 30 29 28 28 28 27 27 27 26 25 24 23 22 22 22 21 21 20 21 20 20 20 19 19 18
26 26 26 26 27 27 27 27 28 28 28 28 28 28 28 27 26 26 25 25 25 24 24 23 22 21 20 20 20 19 19 19 19 18 17 17 16 17
26 25 25 25 25 25 26 26 26 26 26 26 26 26 26 25 24 24 24 24 23 23 22 21 20 20 19 18 18 18 18 18 17 16 15 15 15 15
25 25 25 24 24 24 24 25 25 24 24 23 23 22 22 22 22 21 21 21 21 21 20 19 19 18 18 18 17 17 17 16 15 14 14 13 13 13
24 24 24 24 24 23 23 23 22 22 21 20 20 20 20 20 20 19 19 19 19 19 19 18 18 17 17 17 16 16 15 15 14 13 12 11 11 12
22 22 22 22 22 22 22 21 20 19 19 19 19 19 19 19 19 18 18 18 18 18 17 17 16 15 15 15 14 13 13 13 12 11 11 11 11 11
Wind_Direction
267 267 268 269 270 272 273 274 275 276 276 277 277 276 277 277 276 276 276 276 276 276 275 275 275 275 276 277 277 277 278 278 277 276 276 277 277 277
267 268 268 269 271 273 274 274 276 277 277 278 278 277 277 277 277 277 276 276 276 277 276 275 275 275 276 278 278 278 278 278 278 278 277 278 278 278
268 268 269 270 271 273 274 275 276 278 279 278 278 277 277 278 278 277 277 277 277 276 277 276 276 276 276 277 278 279 278 278 278 279 278 279 280 279
269 269 270 271 272 273 275 277 278 279 279 279 279 278 278 279 279 278 277 277 276 276 277 276 276 276 276 277 278 278 277 277 278 278 279 280 281 280
269 270 271 271 273 274 276 278 279 280 280 279 279 278 278 279 279 278 277 278 278 278 277 277 276 277 277 277 277 278 277 277 278 279 280 280 281 281
270 271 272 273 275 276 277 278 279 280 280 279 278 278 279 280 279 278 278 278 279 279 279 279 278 278 278 278 278 278 278 278 279 281 280 280 281 281
270 271 274 275 276 277 278 279 280 280 280 279 278 279 279 279 278 279 279 279 280 280 280 280 280 279 278 278 278 279 278 279 279 280 280 280 281 281
272 274 275 276 277 278 279 280 280 281 280 279 279 279 279 279 279 280 281 281 281 281 281 282 281 280 279 279 278 278 278 279 279 280 281 281 281 280
275 276 276 278 279 280 280 280 281 282 281 281 281 281 281 281 281 280 281 281 281 282 282 283 282 281 279 278 278 278 279 280 280 280 281 280 280 280
275 276 277 278 280 282 282 282 283 282 282 283 282 282 282 281 282 282 282 282 283 283 283 282 281 281 280 280 279 279 281 282 281 280 280 279 279 278
276 276 277 278 280 282 283 283 283 282 283 284 283 283 283 283 283 283 283 283 283 283 284 284 283 282 281 281 281 281 282 282 281 280 279 279 278 278
277 276 276 278 279 281 282 283 283 283 284 285 285 284 284 284 284 284 283 283 284 284 284 284 283 282 281 281 282 282 282 281 280 280 280 280 279 278
277 277 277 278 279 280 282 283 283 283 284 285 286 286 286 286 285 283 283 283 284 285 285 285 283 282 282 282 282 281 280 279 279 279 279 279 278 278
278 278 279 278 279 280 282 283 285 285 286 288 287 286 285 285 285 283 283 284 284 285 285 286 284 282 282 282 282 281 279 278 278 279 278 278 278 277
278 279 280 279 279 281 282 283 285 286 287 288 288 287 285 285 284 282 282 283 284 285 286 287 286 284 282 282 282 281 279 279 279 279 278 279 279 277
277 278 278 278 279 281 281 282 283 285 286 287 288 288 286 286 285 283 283 283 285 286 287 287 285 284 283 282 282 282 280 279 278 278 279 278 279 278
278 279 279 279 280 282 282 282 282 284 286 288 288 288 287 287 286 285 284 285 285 286 287 286 284 284 283 283 282 281 280 279 277 278 279 277 275 275
278 279 280 280 281 282 283 284 285 287 287 288 287 287 287 288 288 286 285 286 286 286 287 286 284 283 281 281 280 279 278 278 278 279 278 275 272 272
278 280 280 282 283 283 284 285 287 288 289 290 289 289 288 289 289 287 286 285 285 285 287 285 282 280 279 278 277 277 278 278 279 279 276 272 270 270
277 279 281 282 283 285 286 287 289 290 292 292 291 291 290 290 289 287 286 286 285 284 286 285 281 277 276 276 276 277 278 278 279 277 274 270 268 268
276 278 280 282 284 286 288 289 290 291 292 293 293 294 293 292 291 289 288 287 285 283 284 285 281 275 273 274 275 276 277 275 276 274 272 269 266 266
278 279 280 281 284 287 289 290 290 290 291 294 296 297 296 295 293 290 289 287 285 283 284 285 280 274 271 272 272 273 273 272 272 271 269 267 265 266
277 279 281 282 284 287 289 289 288 288 291 295 298 298 297 297 294 291 288 286 285 285 286 284 279 273 270 269 268 268 269 271 270 270 270 269 268 269